| time (UTC) | temp F | wind direction | speed MPH | gust MPH | rain 1hr in | rain 24hr in | rain mn in | humidity % | barometer mb |
| 20260508092547 | 37 | 187 | 0.0 | 0.0 | 0.00 | 0.00 | 0.00 | 99 | 1017.4 |
| 20260508092046 | 37 | 187 | 0.0 | 0.0 | 0.00 | 0.00 | 0.00 | 99 | 1017.4 |
| 20260508091543 | 37 | 190 | 0.0 | 0.0 | 0.00 | 0.00 | 0.00 | 99 | 1017.5 |
| 20260508091039 | 37 | 192 | 0.0 | 0.0 | 0.00 | 0.00 | 0.00 | 99 | 1017.3 |
| 20260508090538 | 37 | 187 | 0.0 | 0.0 | 0.00 | 0.00 | 0.00 | 99 | 1017.3 |
| 20260508090034 | 36 | 186 | 0.0 | 0.0 | 0.00 | 0.00 | 0.00 | 99 | 1017.1 |
| 20260508085530 | 37 | 181 | 0.0 | 0.0 | 0.00 | 0.00 | 0.00 | 99 | 1017.4 |
| 20260508085028 | 36 | 185 | 0.0 | 0.0 | 0.00 | 0.00 | 0.00 | 99 | 1017.3 |
| 20260508084524 | 37 | 187 | 0.0 | 0.0 | 0.00 | 0.00 | 0.00 | 99 | 1017.3 |
| 20260508084022 | 37 | 187 | 0.0 | 0.0 | 0.00 | 0.00 | 0.00 | 99 | 1017.2 |
| 20260508083519 | 37 | 187 | 0.0 | 0.0 | 0.00 | 0.00 | 0.00 | 99 | 1017.4 |
| 20260508083015 | 37 | 182 | 0.0 | 0.0 | 0.00 | 0.00 | 0.00 | 99 | 1017.4 |
| 20260508082511 | 37 | 183 | 0.0 | 0.0 | 0.00 | 0.00 | 0.00 | 99 | 1017.1 |
| 20260508082009 | 37 | 182 | 0.0 | 0.0 | 0.00 | 0.00 | 0.00 | 98 | 1017.2 |
| 20260508081506 | 37 | 182 | 0.0 | 0.0 | 0.00 | 0.00 | 0.00 | 98 | 1017.1 |
| 20260508081002 | 37 | 182 | 0.0 | 0.0 | 0.00 | 0.00 | 0.00 | 98 | 1017.2 |
| 20260508080500 | 38 | 181 | 0.0 | 0.0 | 0.00 | 0.00 | 0.00 | 98 | 1017.1 |
| 20260508075957 | 38 | 187 | 0.0 | 0.0 | 0.00 | 0.00 | 0.00 | 97 | 1017.2 |
| 20260508075454 | 38 | 187 | 0.0 | 0.0 | 0.00 | 0.00 | 0.00 | 97 | 1016.9 |
| 20260508074951 | 38 | 187 | 0.0 | 0.0 | 0.00 | 0.00 | 0.00 | 97 | 1017.0 |
| 20260508074449 | 38 | 187 | 0.0 | 0.0 | 0.00 | 0.00 | 0.00 | 97 | 1017.2 |
| 20260508073945 | 38 | 187 | 0.0 | 0.0 | 0.00 | 0.00 | 0.00 | 96 | 1017.0 |
| 20260508073443 | 38 | 181 | 0.0 | 0.0 | 0.00 | 0.00 | 0.00 | 96 | 1016.9 |
| 20260508072939 | 38 | 182 | 0.0 | 0.0 | 0.00 | 0.00 | 0.00 | 96 | 1017.0 |
| 20260508072436 | 39 | 180 | 0.0 | 0.0 | 0.00 | 0.00 | 0.00 | 96 | 1016.4 |
| 20260508071933 | 39 | 202 | 0.0 | 0.0 | 0.00 | 0.00 | 0.00 | 96 | 1016.7 |
| 20260508071431 | 39 | 182 | 0.0 | 0.0 | 0.00 | 0.00 | 0.00 | 96 | 1016.7 |
| 20260508070928 | 39 | 192 | 0.0 | 0.0 | 0.00 | 0.00 | 0.00 | 96 | 1016.7 |
| 20260508070426 | 39 | 192 | 0.0 | 0.0 | 0.00 | 0.00 | 0.00 | 96 | 1016.8 |
| 20260508065924 | 39 | 179 | 0.0 | 0.0 | 0.00 | 0.00 | 0.00 | 96 | 1016.9 |
| 20260508065422 | 39 | 187 | 0.0 | 0.0 | 0.00 | 0.00 | 0.00 | 96 | 1016.9 |
| 20260508064919 | 39 | 172 | 0.0 | 0.0 | 0.00 | 0.00 | 0.00 | 96 | 1016.7 |
| 20260508064416 | 39 | 187 | 0.0 | 0.0 | 0.00 | 0.00 | 0.00 | 97 | 1016.8 |
| 20260508063914 | 39 | 177 | 0.0 | 0.0 | 0.00 | 0.00 | 0.00 | 97 | 1016.7 |
| 20260508063412 | 39 | 177 | 0.0 | 0.0 | 0.00 | 0.00 | 0.00 | 97 | 1016.5 |
| 20260508062908 | 39 | 182 | 0.0 | 0.0 | 0.00 | 0.00 | 0.00 | 97 | 1016.7 |
| 20260508062406 | 39 | 174 | 0.0 | 0.0 | 0.00 | 0.00 | 0.00 | 96 | 1016.9 |
| 20260508061903 | 40 | 185 | 0.0 | 0.0 | 0.00 | 0.00 | 0.00 | 96 | 1016.7 |
| 20260508061401 | 40 | 185 | 0.0 | 0.0 | 0.00 | 0.00 | 0.00 | 96 | 1016.7 |
| 20260508060857 | 40 | 185 | 0.0 | 0.0 | 0.00 | 0.00 | 0.00 | 96 | 1016.5 |
| 20260508060355 | 40 | 188 | 0.0 | 0.0 | 0.00 | 0.00 | 0.00 | 96 | 1016.9 |
| 20260508055856 | 40 | 191 | 0.0 | 0.0 | 0.00 | 0.00 | 0.00 | 96 | 1016.8 |
| 20260508055353 | 40 | 190 | 0.0 | 0.0 | 0.00 | 0.00 | 0.00 | 96 | 1017.1 |
| 20260508054849 | 40 | 191 | 0.0 | 0.0 | 0.00 | 0.00 | 0.00 | 96 | 1016.9 |
| 20260508054342 | 41 | 187 | 0.0 | 0.0 | 0.00 | 0.00 | 0.00 | 96 | 1016.7 |
| 20260508053838 | 41 | 188 | 0.0 | 0.0 | 0.00 | 0.00 | 0.00 | 96 | 1016.8 |
| 20260508053336 | 41 | 189 | 0.0 | 0.0 | 0.00 | 0.00 | 0.00 | 95 | 1016.7 |
| 20260508052833 | 41 | 197 | 0.0 | 0.0 | 0.00 | 0.00 | 0.00 | 95 | 1016.9 |
| 20260508052331 | 41 | 192 | 0.0 | 0.0 | 0.00 | 0.00 | 0.00 | 95 | 1017.0 |
| 20260508051826 | 41 | 187 | 0.0 | 0.0 | 0.00 | 0.00 | 0.00 | 95 | 1016.4 |
| 20260508051322 | 41 | 183 | 0.0 | 0.0 | 0.00 | 0.00 | 0.00 | 94 | 1016.3 |
| 20260508050818 | 41 | 180 | 0.0 | 0.0 | 0.00 | 0.00 | 0.00 | 95 | 1016.2 |
| 20260508050316 | 41 | 183 | 0.0 | 0.0 | 0.00 | 0.00 | 0.00 | 94 | 1016.2 |
| 20260508045811 | 42 | 183 | 0.0 | 0.0 | 0.00 | 0.00 | 0.00 | 94 | 1016.1 |
| 20260508045309 | 42 | 182 | 0.0 | 0.0 | 0.00 | 0.00 | 0.00 | 94 | 1016.0 |
| 20260508044807 | 42 | 184 | 0.0 | 0.0 | 0.00 | 0.00 | 0.00 | 94 | 1015.8 |
| 20260508044303 | 42 | 183 | 0.0 | 0.0 | 0.00 | 0.00 | 0.00 | 93 | 1015.8 |
| 20260508043759 | 43 | 183 | 0.0 | 0.0 | 0.00 | 0.00 | 0.00 | 93 | 1015.7 |
| 20260508043257 | 43 | 183 | 0.0 | 0.0 | 0.00 | 0.00 | 0.00 | 93 | 1015.8 |
| 20260508042753 | 43 | 192 | 0.0 | 0.0 | 0.00 | 0.00 | 0.00 | 93 | 1016.0 |
| 20260508042251 | 43 | 192 | 0.0 | 0.0 | 0.00 | 0.00 | 0.00 | 92 | 1015.9 |
| 20260508041747 | 44 | 192 | 0.0 | 0.0 | 0.00 | 0.00 | 0.00 | 92 | 1015.8 |
| 20260508041244 | 44 | 192 | 0.0 | 0.0 | 0.00 | 0.00 | 0.00 | 91 | 1015.7 |
| 20260508040740 | 45 | 185 | 0.0 | 0.0 | 0.00 | 0.00 | 0.00 | 90 | 1015.7 |
| 20260508040238 | 45 | 187 | 0.0 | 0.0 | 0.00 | 0.00 | 0.00 | 88 | 1015.9 |
| 20260508035735 | 45 | 187 | 0.0 | 0.0 | 0.00 | 0.02 | 0.02 | 86 | 1015.8 |
| 20260508035232 | 46 | 190 | 0.0 | 0.0 | 0.00 | 0.02 | 0.02 | 85 | 1015.6 |
| 20260508034729 | 46 | 190 | 0.0 | 0.0 | 0.00 | 0.02 | 0.02 | 85 | 1015.5 |
| 20260508034226 | 47 | 189 | 0.0 | 0.0 | 0.00 | 0.02 | 0.02 | 83 | 1015.4 |
| 20260508033723 | 47 | 194 | 0.0 | 1.0 | 0.00 | 0.02 | 0.02 | 81 | 1015.5 |
| 20260508033222 | 48 | 190 | 0.0 | 0.0 | 0.00 | 0.02 | 0.02 | 79 | 1015.5 |
| 20260508032719 | 48 | 190 | 0.0 | 0.0 | 0.00 | 0.02 | 0.02 | 78 | 1015.7 |
| 20260508032216 | 47 | 219 | 0.0 | 1.0 | 0.00 | 0.02 | 0.02 | 81 | 1015.6 |
| 20260508031712 | 48 | 224 | 1.0 | 1.0 | 0.00 | 0.02 | 0.02 | 79 | 1015.7 |
| 20260508031203 | 48 | 188 | 0.0 | 0.0 | 0.00 | 0.02 | 0.02 | 80 | 1015.5 |
| 20260508030659 | 48 | 193 | 1.0 | 1.0 | 0.00 | 0.02 | 0.02 | 79 | 1015.4 |
| 20260508030157 | 48 | 220 | 1.0 | 1.0 | 0.00 | 0.02 | 0.02 | 78 | 1015.2 |
| 20260508025653 | 49 | 186 | 0.0 | 1.0 | 0.00 | 0.02 | 0.02 | 79 | 1015.2 |
| 20260508025150 | 49 | 234 | 1.0 | 1.0 | 0.00 | 0.02 | 0.02 | 75 | 1015.3 |
| 20260508024646 | 49 | 223 | 1.0 | 1.0 | 0.00 | 0.02 | 0.02 | 76 | 1015.1 |
| 20260508024144 | 50 | 188 | 0.0 | 1.0 | 0.00 | 0.02 | 0.02 | 75 | 1015.2 |
| 20260508023639 | 49 | 184 | 1.0 | 1.0 | 0.00 | 0.02 | 0.02 | 78 | 1015.1 |
| 20260508023137 | 50 | 220 | 1.0 | 1.0 | 0.00 | 0.02 | 0.02 | 75 | 1014.7 |
| 20260508022633 | 50 | 190 | 1.0 | 1.0 | 0.00 | 0.02 | 0.02 | 76 | 1014.9 |
| 20260508022130 | 50 | 188 | 1.0 | 1.0 | 0.00 | 0.02 | 0.02 | 75 | 1014.7 |
| 20260508021626 | 50 | 262 | 1.0 | 1.0 | 0.00 | 0.02 | 0.02 | 76 | 1014.9 |
| 20260508021122 | 50 | 192 | 1.0 | 1.0 | 0.00 | 0.02 | 0.02 | 76 | 1014.5 |
| 20260508020620 | 51 | 189 | 1.0 | 1.0 | 0.00 | 0.02 | 0.02 | 75 | 1014.5 |
| 20260508020117 | 50 | 191 | 0.0 | 1.0 | 0.00 | 0.02 | 0.02 | 77 | 1014.5 |
| 20260508015615 | 50 | 191 | 1.0 | 1.0 | 0.00 | 0.02 | 0.02 | 76 | 1014.2 |
| 20260508015111 | 51 | 236 | 1.0 | 1.0 | 0.00 | 0.02 | 0.02 | 77 | 1014.2 |
| 20260508014607 | 51 | 240 | 2.0 | 3.0 | 0.00 | 0.02 | 0.02 | 73 | 1014.0 |
| 20260508014104 | 50 | 212 | 1.0 | 1.0 | 0.00 | 0.02 | 0.02 | 73 | 1014.0 |
| 20260508013600 | 51 | 217 | 1.0 | 1.0 | 0.00 | 0.02 | 0.02 | 77 | 1014.1 |
| 20260508013057 | 51 | 216 | 1.0 | 1.0 | 0.00 | 0.02 | 0.02 | 75 | 1013.9 |
| 20260508012555 | 51 | 205 | 2.0 | 2.0 | 0.00 | 0.02 | 0.02 | 74 | 1013.7 |
| 20260508012052 | 50 | 291 | 3.0 | 5.0 | 0.00 | 0.02 | 0.02 | 81 | 1013.9 |
| 20260508011550 | 50 | 187 | 0.0 | 0.0 | 0.00 | 0.02 | 0.02 | 79 | 1013.9 |
| 20260508011047 | 50 | 206 | 1.0 | 1.0 | 0.00 | 0.02 | 0.02 | 80 | 1013.6 |
| 20260508010544 | 50 | 260 | 1.0 | 2.0 | 0.00 | 0.02 | 0.02 | 83 | 1013.6 |
| 20260508010041 | 50 | 133 | 1.0 | 2.0 | 0.00 | 0.02 | 0.02 | 82 | 1013.5 |
| 20260508005537 | 49 | 183 | 0.0 | 0.0 | 0.00 | 0.02 | 0.02 | 85 | 1013.7 |
| 20260508005034 | 50 | 163 | 0.0 | 1.0 | 0.00 | 0.02 | 0.02 | 84 | 1013.5 |
| 20260508004530 | 50 | 189 | 0.0 | 0.0 | 0.00 | 0.02 | 0.02 | 83 | 1013.4 |
| 20260508004027 | 50 | 189 | 0.0 | 0.0 | 0.00 | 0.02 | 0.02 | 82 | 1013.6 |
| 20260508003524 | 50 | 191 | 0.0 | 0.0 | 0.00 | 0.02 | 0.02 | 80 | 1013.4 |
| 20260508003022 | 51 | 179 | 0.0 | 0.0 | 0.00 | 0.02 | 0.02 | 81 | 1013.4 |
| 20260508002517 | 51 | 183 | 0.0 | 0.0 | 0.00 | 0.02 | 0.02 | 79 | 1013.4 |
| 20260508002015 | 52 | 198 | 0.0 | 0.0 | 0.00 | 0.02 | 0.02 | 76 | 1013.6 |
| 20260508001510 | 53 | 183 | 0.0 | 0.0 | 0.00 | 0.02 | 0.02 | 73 | 1013.4 |
| 20260508001006 | 54 | 179 | 0.0 | 1.0 | 0.00 | 0.02 | 0.02 | 73 | 1013.4 |
| 20260508000502 | 54 | 187 | 0.0 | 0.0 | 0.00 | 0.02 | 0.02 | 72 | 1013.4 |
| 20260507235959 | 55 | 196 | 1.0 | 1.0 | 0.00 | 0.02 | 0.02 | 69 | 1013.2 |
| 20260507235451 | 55 | 239 | 2.0 | 3.0 | 0.00 | 0.02 | 0.02 | 69 | 1013.4 |
| 20260507234948 | 55 | 273 | 3.0 | 3.0 | 0.00 | 0.02 | 0.02 | 65 | 1013.2 |
| 20260507234445 | 56 | 172 | 1.0 | 1.0 | 0.00 | 0.02 | 0.02 | 68 | 1013.2 |
| 20260507233941 | 57 | 207 | 1.0 | 1.0 | 0.00 | 0.02 | 0.02 | 66 | 1013.0 |
| 20260507233438 | 57 | 190 | 0.0 | 1.0 | 0.00 | 0.02 | 0.02 | 66 | 1013.2 |
| 20260507232936 | 57 | 298 | 4.0 | 5.0 | 0.00 | 0.02 | 0.02 | 64 | 1013.0 |
| 20260507232432 | 58 | 209 | 1.0 | 1.0 | 0.00 | 0.02 | 0.02 | 63 | 1012.8 |
| 20260507231929 | 58 | 183 | 2.0 | 2.0 | 0.00 | 0.02 | 0.02 | 61 | 1013.0 |
| 20260507231420 | 59 | 315 | 3.0 | 3.0 | 0.00 | 0.02 | 0.02 | 63 | 1012.8 |
| 20260507230918 | 59 | 232 | 2.0 | 2.0 | 0.00 | 0.02 | 0.02 | 61 | 1012.8 |
| 20260507230415 | 59 | 157 | 1.0 | 1.0 | 0.00 | 0.02 | 0.02 | 62 | 1012.9 |
| 20260507225914 | 58 | 283 | 3.0 | 3.0 | 0.00 | 0.02 | 0.02 | 61 | 1012.8 |
| 20260507225411 | 59 | 289 | 3.0 | 5.0 | 0.00 | 0.02 | 0.02 | 60 | 1012.7 |
| 20260507224907 | 59 | 236 | 2.0 | 2.0 | 0.00 | 0.02 | 0.02 | 61 | 1012.6 |
| 20260507224403 | 59 | 256 | 4.0 | 5.0 | 0.00 | 0.02 | 0.02 | 60 | 1012.5 |
| 20260507223900 | 59 | 229 | 6.0 | 7.0 | 0.00 | 0.02 | 0.02 | 60 | 1012.5 |
| 20260507223357 | 59 | 270 | 3.0 | 3.0 | 0.00 | 0.02 | 0.02 | 60 | 1012.5 |
| 20260507222853 | 60 | 262 | 4.0 | 5.0 | 0.00 | 0.02 | 0.02 | 59 | 1012.3 |
| 20260507222344 | 60 | 331 | 4.0 | 6.0 | 0.00 | 0.02 | 0.02 | 59 | 1012.4 |
| 20260507221841 | 60 | 236 | 2.0 | 2.0 | 0.00 | 0.02 | 0.02 | 58 | 1012.4 |
| 20260507221337 | 59 | 206 | 1.0 | 1.0 | 0.00 | 0.02 | 0.02 | 60 | 1012.4 |
| 20260507220832 | 59 | 201 | 3.0 | 3.0 | 0.00 | 0.02 | 0.02 | 59 | 1012.5 |
| 20260507220331 | 59 | 209 | 5.0 | 6.0 | 0.00 | 0.02 | 0.02 | 59 | 1012.4 |
| 20260507215827 | 59 | 247 | 3.0 | 3.0 | 0.00 | 0.02 | 0.02 | 59 | 1012.3 |
| 20260507215324 | 59 | 250 | 4.0 | 5.0 | 0.00 | 0.02 | 0.02 | 59 | 1012.5 |
| 20260507214821 | 59 | 283 | 1.0 | 2.0 | 0.00 | 0.02 | 0.02 | 65 | 1012.4 |
| 20260507214319 | 60 | 188 | 3.0 | 5.0 | 0.00 | 0.02 | 0.02 | 60 | 1012.4 |
| 20260507213813 | 60 | 289 | 1.0 | 2.0 | 0.00 | 0.02 | 0.02 | 67 | 1012.2 |
| 20260507213311 | 58 | 248 | 1.0 | 2.0 | 0.00 | 0.02 | 0.02 | 65 | 1011.9 |
| 20260507212808 | 58 | 272 | 3.0 | 3.0 | 0.00 | 0.02 | 0.02 | 65 | 1012.1 |
| 20260507212306 | 58 | 196 | 3.0 | 3.0 | 0.00 | 0.02 | 0.02 | 64 | 1011.9 |
| 20260507211800 | 59 | 309 | 4.0 | 5.0 | 0.00 | 0.02 | 0.02 | 65 | 1012.0 |
| 20260507211257 | 59 | 294 | 4.0 | 7.0 | 0.00 | 0.02 | 0.02 | 65 | 1011.9 |
| 20260507210754 | 59 | 90 | 7.0 | 11.0 | 0.00 | 0.02 | 0.02 | 64 | 1011.8 |
| 20260507210251 | 59 | 196 | 4.0 | 6.0 | 0.00 | 0.02 | 0.02 | 66 | 1011.8 |
| 20260507205747 | 58 | 297 | 3.0 | 5.0 | 0.00 | 0.02 | 0.02 | 67 | 1011.7 |
| 20260507205244 | 59 | 296 | 2.0 | 2.0 | 0.00 | 0.02 | 0.02 | 67 | 1011.6 |
| 20260507204740 | 59 | 184 | 2.0 | 2.0 | 0.00 | 0.02 | 0.02 | 64 | 1011.8 |
| 20260507204238 | 59 | 304 | 8.0 | 10.0 | 0.00 | 0.02 | 0.02 | 64 | 1011.9 |
| 20260507203736 | 58 | 225 | 2.0 | 2.0 | 0.00 | 0.02 | 0.02 | 68 | 1011.7 |
| 20260507203233 | 58 | 258 | 2.0 | 2.0 | 0.00 | 0.02 | 0.02 | 68 | 1011.7 |
| 20260507202730 | 58 | 276 | 4.0 | 5.0 | 0.00 | 0.02 | 0.02 | 67 | 1011.6 |
| 20260507202226 | 59 | 260 | 4.0 | 5.0 | 0.00 | 0.02 | 0.02 | 67 | 1011.8 |
| 20260507201720 | 60 | 252 | 4.0 | 5.0 | 0.00 | 0.02 | 0.02 | 65 | 1011.3 |
| 20260507201217 | 60 | 305 | 5.0 | 6.0 | 0.00 | 0.02 | 0.02 | 66 | 1011.3 |
| 20260507200714 | 59 | 4 | 4.0 | 5.0 | 0.00 | 0.02 | 0.02 | 69 | 1011.6 |
| 20260507200210 | 58 | 278 | 7.0 | 9.0 | 0.00 | 0.02 | 0.02 | 68 | 1011.5 |
| 20260507195706 | 60 | 309 | 4.0 | 6.0 | 0.00 | 0.02 | 0.02 | 68 | 1011.7 |
| 20260507195203 | 60 | 234 | 2.0 | 2.0 | 0.00 | 0.02 | 0.02 | 69 | 1011.7 |
| 20260507194700 | 59 | 290 | 2.0 | 2.0 | 0.00 | 0.02 | 0.02 | 71 | 1011.8 |
| 20260507194156 | 58 | 197 | 0.0 | 0.0 | 0.00 | 0.02 | 0.02 | 71 | 1011.3 |
| 20260507193648 | 59 | 248 | 3.0 | 3.0 | 0.00 | 0.02 | 0.02 | 72 | 1011.8 |
| 20260507193145 | 57 | 246 | 1.0 | 2.0 | 0.00 | 0.02 | 0.02 | 73 | 1012.4 |
| 20260507192641 | 57 | 240 | 1.0 | 2.0 | 0.00 | 0.02 | 0.02 | 75 | 1012.3 |
| 20260507192138 | 56 | 283 | 3.0 | 5.0 | 0.00 | 0.02 | 0.02 | 75 | 1012.3 |
| 20260507191633 | 57 | 272 | 2.0 | 2.0 | 0.00 | 0.02 | 0.02 | 75 | 1012.7 |
| 20260507191130 | 56 | 239 | 3.0 | 3.0 | 0.00 | 0.02 | 0.02 | 75 | 1012.7 |
| 20260507190628 | 56 | 197 | 1.0 | 1.0 | 0.00 | 0.02 | 0.02 | 76 | 1012.8 |
| 20260507190127 | 56 | 225 | 1.0 | 1.0 | 0.00 | 0.02 | 0.02 | 77 | 1012.6 |
| 20260507185625 | 56 | 212 | 1.0 | 1.0 | 0.00 | 0.02 | 0.02 | 76 | 1012.8 |
| 20260507185120 | 55 | 190 | 1.0 | 1.0 | 0.00 | 0.02 | 0.02 | 78 | 1012.7 |
| 20260507184619 | 55 | 207 | 1.0 | 1.0 | 0.00 | 0.02 | 0.02 | 77 | 1012.9 |
| 20260507184117 | 55 | 196 | 1.0 | 2.0 | 0.00 | 0.02 | 0.02 | 79 | 1012.8 |
| 20260507183613 | 55 | 253 | 3.0 | 5.0 | 0.00 | 0.02 | 0.02 | 76 | 1013.2 |
| 20260507183110 | 55 | 237 | 1.0 | 1.0 | 0.00 | 0.02 | 0.02 | 78 | 1013.0 |
| 20260507182606 | 55 | 189 | 1.0 | 2.0 | 0.00 | 0.02 | 0.02 | 79 | 1012.8 |
| 20260507182102 | 54 | 235 | 2.0 | 2.0 | 0.00 | 0.02 | 0.02 | 79 | 1012.9 |
| 20260507181559 | 54 | 244 | 0.0 | 1.0 | 0.00 | 0.02 | 0.02 | 81 | 1013.0 |
| 20260507181055 | 54 | 211 | 3.0 | 3.0 | 0.00 | 0.02 | 0.02 | 80 | 1013.2 |
| 20260507180552 | 54 | 232 | 1.0 | 1.0 | 0.00 | 0.02 | 0.02 | 78 | 1012.9 |
| 20260507180049 | 55 | 219 | 2.0 | 2.0 | 0.00 | 0.02 | 0.02 | 78 | 1012.8 |
| 20260507175545 | 55 | 192 | 0.0 | 1.0 | 0.00 | 0.02 | 0.02 | 81 | 1012.8 |
| 20260507175043 | 54 | 213 | 1.0 | 1.0 | 0.00 | 0.02 | 0.02 | 81 | 1012.9 |
| 20260507174539 | 53 | 188 | 1.0 | 2.0 | 0.00 | 0.02 | 0.02 | 80 | 1012.8 |
| 20260507174037 | 53 | 345 | 3.0 | 5.0 | 0.00 | 0.02 | 0.02 | 82 | 1012.8 |
| 20260507173534 | 53 | 198 | 1.0 | 2.0 | 0.00 | 0.02 | 0.02 | 82 | 1012.9 |
| 20260507173031 | 53 | 250 | 5.0 | 6.0 | 0.00 | 0.02 | 0.02 | 81 | 1013.3 |
| 20260507172527 | 53 | 236 | 2.0 | 2.0 | 0.00 | 0.02 | 0.02 | 83 | 1013.2 |
| 20260507172024 | 53 | 248 | 1.0 | 1.0 | 0.00 | 0.02 | 0.02 | 85 | 1013.3 |
| 20260507171519 | 53 | 191 | 2.0 | 3.0 | 0.00 | 0.02 | 0.02 | 85 | 1013.0 |
| 20260507171017 | 53 | 238 | 3.0 | 3.0 | 0.00 | 0.02 | 0.02 | 84 | 1013.3 |
| 20260507170513 | 53 | 224 | 1.0 | 2.0 | 0.00 | 0.02 | 0.02 | 85 | 1013.2 |
| 20260507170010 | 53 | 228 | 1.0 | 1.0 | 0.00 | 0.02 | 0.02 | 86 | 1013.4 |
| 20260507165506 | 53 | 265 | 2.0 | 2.0 | 0.00 | 0.02 | 0.02 | 86 | 1013.0 |
| 20260507165003 | 53 | 206 | 1.0 | 2.0 | 0.00 | 0.02 | 0.02 | 85 | 1012.9 |
| 20260507164459 | 53 | 191 | 1.0 | 2.0 | 0.00 | 0.02 | 0.02 | 86 | 1013.3 |
| 20260507163956 | 53 | 199 | 0.0 | 1.0 | 0.00 | 0.02 | 0.02 | 86 | 1013.3 |
| 20260507163453 | 52 | 203 | 1.0 | 1.0 | 0.00 | 0.02 | 0.02 | 86 | 1013.5 |
| 20260507162950 | 52 | 185 | 0.0 | 1.0 | 0.00 | 0.02 | 0.02 | 87 | 1013.3 |
| 20260507162446 | 53 | 239 | 1.0 | 2.0 | 0.00 | 0.02 | 0.02 | 85 | 1013.4 |
| 20260507161943 | 53 | 285 | 4.0 | 5.0 | 0.00 | 0.02 | 0.02 | 84 | 1013.7 |
| 20260507161439 | 53 | 238 | 2.0 | 3.0 | 0.00 | 0.02 | 0.02 | 85 | 1013.4 |
| 20260507160936 | 53 | 263 | 2.0 | 3.0 | 0.00 | 0.02 | 0.02 | 85 | 1013.2 |
| 20260507160432 | 53 | 207 | 1.0 | 1.0 | 0.00 | 0.02 | 0.02 | 86 | 1013.4 |
| 20260507155927 | 53 | 235 | 2.0 | 2.0 | 0.00 | 0.02 | 0.02 | 84 | 1013.5 |
| 20260507155424 | 53 | 224 | 1.0 | 1.0 | 0.00 | 0.02 | 0.02 | 85 | 1013.5 |
| 20260507154921 | 53 | 223 | 1.0 | 1.0 | 0.00 | 0.02 | 0.02 | 86 | 1013.4 |
| 20260507154418 | 53 | 235 | 1.0 | 2.0 | 0.00 | 0.02 | 0.02 | 86 | 1013.7 |
| 20260507153915 | 53 | 285 | 3.0 | 3.0 | 0.00 | 0.02 | 0.02 | 86 | 1013.3 |
| 20260507153412 | 53 | 287 | 4.0 | 6.0 | 0.00 | 0.02 | 0.02 | 86 | 1013.7 |
| 20260507152908 | 53 | 199 | 0.0 | 0.0 | 0.00 | 0.02 | 0.02 | 87 | 1013.5 |
| 20260507152404 | 53 | 192 | 2.0 | 2.0 | 0.00 | 0.02 | 0.02 | 89 | 1013.5 |
| 20260507151900 | 52 | 278 | 4.0 | 5.0 | 0.00 | 0.02 | 0.02 | 87 | 1013.5 |
| 20260507151356 | 53 | 250 | 3.0 | 3.0 | 0.00 | 0.02 | 0.02 | 87 | 1013.8 |
| 20260507150854 | 52 | 232 | 2.0 | 2.0 | 0.00 | 0.02 | 0.02 | 89 | 1013.7 |
| 20260507150351 | 51 | 264 | 2.0 | 2.0 | 0.00 | 0.02 | 0.02 | 91 | 1013.8 |
| 20260507145847 | 51 | 206 | 2.0 | 2.0 | 0.00 | 0.02 | 0.02 | 90 | 1013.7 |
| 20260507145343 | 52 | 216 | 2.0 | 2.0 | 0.00 | 0.02 | 0.02 | 88 | 1013.6 |
| 20260507144840 | 53 | 263 | 3.0 | 3.0 | 0.00 | 0.02 | 0.02 | 86 | 1013.7 |
| 20260507144337 | 54 | 260 | 2.0 | 3.0 | 0.00 | 0.02 | 0.02 | 86 | 1013.4 |
| 20260507143834 | 54 | 204 | 1.0 | 1.0 | 0.00 | 0.02 | 0.02 | 89 | 1013.5 |
| 20260507143331 | 54 | 199 | 2.0 | 2.0 | 0.00 | 0.02 | 0.02 | 87 | 1013.3 |
| 20260507142827 | 54 | 351 | 2.0 | 3.0 | 0.00 | 0.02 | 0.02 | 85 | 1013.4 |
| 20260507142324 | 53 | 216 | 1.0 | 1.0 | 0.00 | 0.02 | 0.02 | 87 | 1013.2 |
| 20260507141820 | 53 | 211 | 1.0 | 1.0 | 0.00 | 0.02 | 0.02 | 87 | 1013.5 |
| 20260507141317 | 54 | 217 | 2.0 | 2.0 | 0.00 | 0.02 | 0.02 | 87 | 1013.3 |
| 20260507140814 | 54 | 206 | 1.0 | 1.0 | 0.00 | 0.02 | 0.02 | 88 | 1013.5 |
| 20260507140310 | 53 | 243 | 1.0 | 2.0 | 0.00 | 0.02 | 0.02 | 88 | 1013.6 |
| 20260507135808 | 53 | 219 | 1.0 | 1.0 | 0.00 | 0.02 | 0.02 | 89 | 1013.4 |
| 20260507135306 | 53 | 233 | 1.0 | 2.0 | 0.00 | 0.02 | 0.02 | 89 | 1013.6 |
| 20260507134801 | 53 | 201 | 1.0 | 1.0 | 0.00 | 0.02 | 0.02 | 90 | 1013.6 |
| 20260507134258 | 53 | 231 | 1.0 | 1.0 | 0.00 | 0.02 | 0.02 | 92 | 1013.4 |
| 20260507133754 | 53 | 217 | 2.0 | 2.0 | 0.00 | 0.02 | 0.02 | 90 | 1013.6 |
| 20260507133250 | 53 | 197 | 1.0 | 1.0 | 0.00 | 0.02 | 0.02 | 91 | 1013.7 |
| 20260507132749 | 52 | 192 | 0.0 | 1.0 | 0.00 | 0.02 | 0.02 | 92 | 1013.7 |
| 20260507132245 | 52 | 192 | 1.0 | 1.0 | 0.00 | 0.02 | 0.02 | 93 | 1013.6 |
| 20260507131742 | 52 | 190 | 0.0 | 1.0 | 0.00 | 0.02 | 0.02 | 93 | 1013.7 |
| 20260507131239 | 52 | 224 | 1.0 | 1.0 | 0.00 | 0.02 | 0.02 | 94 | 1014.0 |
| 20260507130735 | 52 | 274 | 2.0 | 2.0 | 0.00 | 0.02 | 0.02 | 95 | 1013.8 |
| 20260507130233 | 52 | 183 | 0.0 | 1.0 | 0.00 | 0.02 | 0.02 | 96 | 1013.7 |
| 20260507125732 | 52 | 208 | 1.0 | 1.0 | 0.00 | 0.02 | 0.02 | 96 | 1014.1 |
| 20260507125229 | 52 | 244 | 1.0 | 1.0 | 0.00 | 0.02 | 0.02 | 96 | 1014.1 |
| 20260507124726 | 52 | 199 | 1.0 | 2.0 | 0.00 | 0.02 | 0.02 | 96 | 1013.9 |
| 20260507124222 | 52 | 207 | 0.0 | 0.0 | 0.00 | 0.02 | 0.02 | 97 | 1013.7 |
| 20260507123721 | 52 | 239 | 1.0 | 2.0 | 0.00 | 0.02 | 0.02 | 97 | 1013.8 |
| 20260507123218 | 52 | 228 | 1.0 | 1.0 | 0.00 | 0.02 | 0.02 | 98 | 1013.6 |
| 20260507122713 | 52 | 216 | 0.0 | 1.0 | 0.00 | 0.02 | 0.02 | 98 | 1013.8 |
| 20260507122209 | 53 | 195 | 0.0 | 0.0 | 0.00 | 0.02 | 0.02 | 99 | 1013.9 |
| 20260507121705 | 52 | 188 | 0.0 | 0.0 | 0.00 | 0.02 | 0.02 | 98 | 1013.7 |
| 20260507121201 | 52 | 190 | 0.0 | 0.0 | 0.00 | 0.02 | 0.02 | 99 | 1013.7 |
| 20260507120657 | 52 | 197 | 0.0 | 0.0 | 0.00 | 0.02 | 0.02 | 98 | 1013.5 |
| 20260507120155 | 52 | 181 | 0.0 | 0.0 | 0.00 | 0.02 | 0.02 | 98 | 1013.5 |
| 20260507115651 | 52 | 174 | 1.0 | 1.0 | 0.00 | 0.02 | 0.02 | 97 | 1013.6 |
| 20260507115146 | 52 | 233 | 2.0 | 2.0 | 0.00 | 0.02 | 0.02 | 97 | 1013.5 |
| 20260507114643 | 52 | 194 | 0.0 | 1.0 | 0.00 | 0.02 | 0.02 | 97 | 1013.6 |
| 20260507114140 | 52 | 236 | 1.0 | 1.0 | 0.00 | 0.02 | 0.02 | 98 | 1013.6 |
| 20260507113637 | 52 | 207 | 1.0 | 1.0 | 0.00 | 0.02 | 0.02 | 98 | 1013.2 |
| 20260507113134 | 52 | 202 | 0.0 | 0.0 | 0.00 | 0.02 | 0.02 | 97 | 1013.7 |
| 20260507112632 | 52 | 210 | 0.0 | 1.0 | 0.00 | 0.02 | 0.02 | 98 | 1013.5 |
| 20260507112128 | 52 | 228 | 2.0 | 2.0 | 0.00 | 0.02 | 0.02 | 98 | 1013.6 |
| 20260507111626 | 52 | 225 | 1.0 | 1.0 | 0.00 | 0.02 | 0.02 | 99 | 1013.3 |
| 20260507111122 | 52 | 247 | 1.0 | 2.0 | 0.00 | 0.02 | 0.02 | 99 | 1013.2 |
| 20260507110618 | 52 | 210 | 1.0 | 1.0 | 0.00 | 0.02 | 0.02 | 99 | 1013.2 |
| 20260507110115 | 52 | 223 | 2.0 | 2.0 | 0.00 | 0.02 | 0.02 | 99 | 1013.2 |
| 20260507105612 | 52 | 201 | 0.0 | 0.0 | 0.00 | 0.02 | 0.02 | 99 | 1013.0 |
| 20260507105108 | 52 | 211 | 0.0 | 0.0 | 0.00 | 0.02 | 0.02 | 99 | 1013.0 |
| 20260507104606 | 52 | 190 | 0.0 | 0.0 | 0.00 | 0.02 | 0.02 | 99 | 1012.9 |
| 20260507104102 | 52 | 195 | 0.0 | 0.0 | 0.00 | 0.02 | 0.02 | 99 | 1012.7 |
| 20260507103558 | 52 | 228 | 1.0 | 1.0 | 0.00 | 0.02 | 0.02 | 99 | 1012.9 |
| 20260507103055 | 53 | 215 | 1.0 | 1.0 | 0.00 | 0.02 | 0.02 | 99 | 1012.9 |
| 20260507102551 | 0 | 0.0 | 0.0 | 0.00 | 0.00 | 0.00 | 1012.8 | ||
| 20260507102047 | 53 | 197 | 0.0 | 0.0 | 0.00 | 0.02 | 0.02 | 99 | 1012.6 |
| 20260507101543 | 53 | 197 | 0.0 | 0.0 | 0.00 | 0.02 | 0.02 | 99 | 1012.9 |
| 20260507101039 | 53 | 179 | 0.0 | 0.0 | 0.00 | 0.02 | 0.02 | 99 | 1012.7 |
| 20260507100537 | 53 | 187 | 1.0 | 2.0 | 0.00 | 0.02 | 0.02 | 98 | 1012.6 |
| 20260507100035 | 53 | 197 | 0.0 | 0.0 | 0.00 | 0.02 | 0.02 | 98 | 1012.7 |
| 20260507095533 | 53 | 215 | 0.0 | 1.0 | 0.00 | 0.02 | 0.02 | 98 | 1012.8 |
| 20260507095029 | 53 | 233 | 2.0 | 2.0 | 0.00 | 0.02 | 0.02 | 98 | 1013.2 |
| 20260507094525 | 53 | 229 | 1.0 | 2.0 | 0.00 | 0.02 | 0.02 | 99 | 1013.3 |
| 20260507094022 | 53 | 290 | 0.0 | 2.0 | 0.00 | 0.02 | 0.02 | 99 | 1012.8 |
| 20260507093520 | 53 | 252 | 4.0 | 5.0 | 0.00 | 0.02 | 0.02 | 99 | 1013.3 |
| 20260507093018 | 53 | 224 | 1.0 | 1.0 | 0.00 | 0.02 | 0.02 | 99 | 1013.2 |